Location: Newark
(45.9456°N, 15.4064°E)
Time: 15:21:53
(UTC+00:00)

SR - Pass Details

Date: 02 February 2020
Orbit: 575 x 880 km, 66.7° (Epoch: 23 February)

Event Time Altitude Azimuth Distance (km) Brightness Sun altitude
Rises 20:48:50 0° 251° (WSW) 3,454 ? -48.4°
Enters shadow 20:49:24 - 253° (WSW) 3,265 ? -48.4°
Reaches altitude 10° 20:51:43 10° 264° (W) 2,533 - -48.8°
Maximum altitude 20:56:39 27° 320° (NW) 1,639 - -49.5°
Drops below altitude 10° 21:01:34 10° 17° (NNE) 2,517 - -50.2°
Sets 21:04:26 0° 30° (NNE) 3,428 - -50.6°
